Tracking 30261 objects as of 18-Feb-2025
HD Live streaming from Space Station
objects crossing your sky now

STARLINK-5109

Track STARLINK-5109 now!
10-day predictions
STARLINK-5109 is classified as:


NORAD ID: 54002
Int'l Code: 2022-125AQ
Perigee: 545.7 km
Apogee: 548.0 km
Inclination: 53.2 °
Period: 95.4 minutes
Semi major axis: 6917 km
RCS: Unknown
Launch date: October 5, 2022
Source: United States (US)
Launch site: AIR FORCE WESTERN TEST RANGE (AFWTR)
Your satellite tracking list
Your tracking list is empty




NASA's NSSDC Master Catalog

Two Line Element Set (TLE):
1 54002U 22125AQ  25048.94586040  .00002044  00000-0  14645-3 0  9991
2 54002  53.2172 131.0409 0001628  84.6147 275.5031 15.08842186131571
Source of the keplerian elements: AFSPC